Regional Weather Roundup
Issued by NWS

Home | Current Version | Previous Version | Text Only | Print | Product List | Glossary On
Versions: 1 2 3 4 5 6 7 8 9 10 11 12 13 14 15 16 17 18 19 20 21 22 23 24 25 26 27
000
ASUS42 KTBW 101116
RWRFL
FLORIDA REGIONAL WEATHER ROUNDUP
NATIONAL WEATHER SERVICE TAMPA BAY RUSKIN FL
600 AM EST SAT DEC 10 2016

NOTE: "FAIR" INDICATES FEW OR NO CLOUDS BELOW 12,000 FEET WITH NO
SIGNIFICANT WEATHER AND/OR OBSTRUCTIONS TO VISIBILITY.

FLZ001>010-012>015-112-114-115-101200-
PANHANDLE FLORIDA

CITY           SKY/WX    TMP DP  RH WIND       PRES   REMARKS
PENSACOLA      CLEAR     36  22  56 NE7       30.50S WCI  30
PENSACOLA NAS  CLEAR     32  22  66 N6        30.50R WCI  26
MILTON NAS     CLEAR     29  21  72 N5        30.50  WCI  24
CRESTVIEW      PTCLDY    29  21  72 NE3       30.51S
DUKE FIELD     FAIR      26  21  81 N6        30.48S WCI  20
VALPARAISO     CLEAR     31  21  65 NE6       30.49S WCI  25
TRI COUNTY     FAIR      31  25  78 N5        30.51R WCI  26
PANAMA CITY    FAIR      34  24  67 N7        30.48R WCI  28
TYNDALL AFB    CLEAR     36  24  60 NE7       30.48R WCI  31
APALACHICOLA   CLEAR     36  23  59 NE9       30.46R WCI  29

STATION/POSITION SKY/WX   TEMP    WIND        PRES    WAVE   SWELL
                          AIR SEA DIR/SP/G            HT/PER HT/PER
                          (F)     (DEG/KT/KT) (MB)    (FT/S) (FT/S)
30.1N   87.6W              46 69   50/ 17/ 21 1032.3S   4/ 5
29.2N   88.2W              53 74   30/ 16/ 21 1031.3R   5/ 6
28.8N   86.0W              55 74              1029.7R   4/ 5
PANAMA CITY BEAC           35 65   20/ 10/ 14 1032.2R
TOWER C                    47      40/ 22/ 24 1031.1R
28.5N   84.5W              57 73   40/ 16/ 17 1028.8R   4/ 6

$$
FLZ011-016>038-118-127-128-134-139-239-101200-
NORTH FLORIDA

CITY           SKY/WX    TMP DP  RH WIND       PRES   REMARKS
MARIANNA       CLEAR     33  22  63 NE6       30.49R WCI  28
TALLAHASSEE    PTCLDY    34  26  72 N3        30.47R
PERRY          PTCLDY    34  24  67 N5        30.46R WCI  30
CROSS CITY     CLEAR     34  27  75 NE7       30.43R WCI  28
LAKE CITY      FAIR      36  25  64 NE7       30.44R WCI  30
GAINESVILLE    CLEAR     39  26  59 N8        30.41R WCI  33
WILLISTON      CLEAR     39  30  70 N3        30.41R
PALATKA        MOCLDY    41  36  81 N7        30.40S WCI  36
MAYPORT NAS    CLEAR     53  40  61 N14       30.41R
JACKSONVILLE   PTCLDY    38  29  70 N10       30.43R WCI  31
JAX NAS        PTCLDY    46  35  65 N17       30.43R WCI  39
FERNANDINA BEA FAIR      50  41  71 N5        30.42R
ST AUGUSTINE   CLEAR     44  40  85 NW9       30.40R WCI  39

STATION/POSITION SKY/WX   TEMP    WIND        PRES    WAVE   SWELL
                          AIR SEA DIR/SP/G            HT/PER HT/PER
                          (F)     (DEG/KT/KT) (MB)    (FT/S) (FT/S)
SHELL POINT      NOT AVBL
KEATON BEACH               34      30/  7/ 10 1030.5R
CEDAR KEY                  42      20/ 10/ 13 1029.6R
FERNANDINA                 50 64  360/ 10/ 13 1030.2R
30.7N   81.3W                 64                N/A     4/ 5
MAYPORT                    54 64   30/ 12/ 19 1029.6R
31.4N   80.9W              51 62   40/ 16/ 21 1030.4S   4/ 5   2/ 9
ST AUGUSTINE               57 63   10/ 21/ 24 1029.6R

$$
FLZ040-043>046-052-053-057-058-063-144-101200-
INTERIOR CENTRAL FLORIDA

CITY           SKY/WX    TMP DP  RH WIND       PRES   REMARKS
OCALA          CLOUDY    45  30  57 N8        30.39R WCI  40
THE VILLAGES     N/A     45  39  81 MISG      30.28R
LEESBURG       PTCLDY    46  38  73 N9        30.37R WCI  41
SANFORD        CLEAR     51  45  79 N12       30.34R
ORLANDO EXEC   CLEAR     51  44  77 N8        30.34R
ORLANDO INTL   MOCLDY    51  45  79 N10       30.33R
KISSIMMEE      PTCLDY    52  45  77 N10       30.34R
WINTER HAVEN   MOCLDY    51  43  74 N13       30.34R
LAKELAND       CLEAR     46  41  81 N7        30.34R WCI  43
BARTOW         FAIR      52  45  76 N8        30.33R
OKEECHOBEE     CLOUDY    55  50  82 N7        30.28R

$$
FLZ041-047-054-059-064-141-147-101200-
EAST CENTRAL FLORIDA

CITY           SKY/WX    TMP DP  RH WIND       PRES   REMARKS
DAYTONA BEACH  MOCLDY    47  44  90 NW5       30.35R WCI  45
DELAND         MOCLDY    46  43  87 N8        30.35R WCI  42
JFK SPACE CTR  MOCLDY    62  53  71 NE6       30.30R
CAPE CANAVERAL PTCLDY    65  54  67 NE8       30.29R
PATRICK AFB    PTCLDY    66  56  69 NE14      30.29R
MELBOURNE      PTCLDY    54  53  97 NW3       30.29R
VERO BEACH     CLOUDY    68  58  70 NE8       30.28R
FT PIERCE      CLOUDY    67  60  78 NE5       30.26S
STUART         CLOUDY    70  64  83 NE10G18   30.26S

STATION/POSITION SKY/WX   TEMP    WIND        PRES    WAVE   SWELL
                          AIR SEA DIR/SP/G            HT/PER HT/PER
                          (F)     (DEG/KT/KT) (MB)    (FT/S) (FT/S)
TRIDENT PIER               61 71   20/  4/  6 1025.7R
28.4N   80.5W                 69                N/A     3/ 6

$$
FLZ050-056-061-142-242-148-248-149-249-151-251-155-255-
160-260-101200-
WEST CENTRAL FLORIDA

CITY           SKY/WX    TMP DP  RH WIND       PRES   REMARKS
CRYSTAL RIVER  FAIR      41  32  70 N5        30.39R WCI  38
INVERNESS      FAIR      43  36  75 N8        30.39R WCI  38
BROOKSVILLE      N/A    N/A N/A N/A MISG        N/A
CLEARWATER AIR FAIR      46  36  66 NE8       30.34S WCI  42
ST PETE CLEARW PTCLDY    50  39  66 N12       30.34R
TAMPA INTL     PTCLDY    50  38  63 N7        30.34S
TAMPA EXEC     PTCLDY    50  39  66 N3        30.35R
PLANT CITY     PTCLDY    48  41  76 N8        30.35S WCI  45
MACDILL AFB    MOCLDY    48  39  71 NE8       30.33R WCI  45
PETER O KNIGHT PTCLDY    52  43  71 NE14      30.34R
ST PETERSBURG  CLOUDY    53  46  77 N16       30.32R
SARASOTA       MOCLDY    51  41  68 NE9       30.30R
VENICE         FAIR      54  45  71 NE16G22   30.30R

STATION/POSITION SKY/WX   TEMP    WIND        PRES    WAVE   SWELL
                          AIR SEA DIR/SP/G            HT/PER HT/PER
                          (F)     (DEG/KT/KT) (MB)    (FT/S) (FT/S)
CLEARWATER BEACH           50 65   30/ 12/ 14 1027.8R
MIDDLE TAMPA BAY           54      40/ 20/ 23 1027.2R
VENICE                     53 68   30/ 13/ 16 1024.9F

$$
FLZ066-069-070-075>078-162-262-165-265-101200-
SOUTHWEST FLORIDA AND KEYS

CITY           SKY/WX    TMP DP  RH WIND       PRES   REMARKS
PUNTA GORDA    CLOUDY    54  46  74 NE12      30.30R
FT MYERS       CLOUDY    57  48  72 NE12      30.27R
SOUTHWEST INTL LGT RAIN  57  47  69 NE9       30.28R
NAPLES         CLOUDY    59  50  72 NE13      30.24R
MARCO ISLAND   PTCLDY    59  50  72 NE10      30.25R
MARATHON       CLOUDY    71  65  81 NE14G21   30.18R
KEY WEST NAS   CLOUDY    68  65  90 N17G23    30.18S
KEY WEST INTL  CLOUDY    69  67  93 N17G23    30.18S

STATION/POSITION SKY/WX   TEMP    WIND        PRES    WAVE   SWELL
                          AIR SEA DIR/SP/G            HT/PER HT/PER
                          (F)     (DEG/KT/KT) (MB)    (FT/S) (FT/S)
NAPLES                        70              1024.1R
26.0N   85.6W              69 76   40/ 19/ 25 1025.1S   7/ 7   2/12
DRY TORTUGAS               70      40/ 23/ 27 1022.5R
SAND KEY                   70      40/ 23/ 26 1021.9S
LONG KEY                   68 74   20/ 20/ 24 1022.3R
MOLASSES REEF              69 78  360/ 16/ 17 1021.9R

$$
FLZ067-068-071>074-168-172>174-101200-
SOUTHEAST FLORIDA

CITY           SKY/WX    TMP DP  RH WIND       PRES   REMARKS
W PALM BEACH   LGT RAIN  63  62  97 N6        30.24R
FT LAUDER-EXEC LGT RAIN  64  63  96 NW6       30.21R
FT LAUDERDALE  LGT RAIN  66  65  96 N8        30.20R
POMPANO BEACH  LGT RAIN  69  67  93 N8        30.21R FOG
PEMBROKE PINES LGT RAIN  64  63  96 N10       30.22R
OPA LOCKA      LGT RAIN  65  63  93 N9        30.21S
MIAMI          RAIN      64  63  96 N8        30.20S FOG
WEST KENDALL   MOCLDY    65  63  93 N12       30.20R
HOMESTEAD      PTCLDY    65  65  99 N8        30.19R

STATION/POSITION SKY/WX   TEMP    WIND        PRES    WAVE   SWELL
                          AIR SEA DIR/SP/G            HT/PER HT/PER
                          (F)     (DEG/KT/KT) (MB)    (FT/S) (FT/S)
PORT EVERGLADES            68     320/  6/  9 1022.4R
VIRGINIA KEY               68 82  350/  6/ 10 1022.7R
LAKE WORTH                 70 75   40/ 19/ 22 1023.0R
FOWEY ROCKS                70 78  340/ 15/ 16 1022.8R

$$





USA.gov is the U.S. government's official web portal to all federal, state and local government web resources and services.